Temp
-12 -12 -12 -12 -12 -13 -13 -13 -12 -13 -13 -13 -13 -14 -14 -14 -14 -13 -13 -12 -12 -12 -12 -12 -12 -12 -12 -13 -13 -12 -12 -12 -12 -11 -11 -11 -11 -11 -11 -11 -12 -12 -12
-12 -12 -12 -12 -12 -12 -12 -12 -12 -13 -13 -13 -13 -13 -14 -13 -13 -13 -13 -13 -12 -12 -12 -12 -12 -12 -12 -12 -12 -12 -12 -11 -11 -12 -12 -11 -11 -11 -12 -12 -11 -12 -12
-13 -12 -12 -12 -12 -12 -12 -12 -12 -13 -13 -13 -13 -13 -13 -13 -13 -13 -13 -13 -13 -13 -13 -13 -12 -12 -12 -12 -12 -12 -12 -12 -12 -11 -11 -11 -12 -12 -12 -11 -12 -12 -12
-12 -12 -12 -12 -12 -12 -12 -12 -13 -13 -13 -12 -13 -13 -13 -13 -13 -13 -13 -13 -13 -13 -13 -13 -12 -12 -12 -12 -12 -12 -12 -12 -11 -11 -11 -11 -12 -12 -12 -12 -13 -13 -12
-12 -12 -12 -12 -12 -12 -12 -12 -13 -13 -12 -12 -12 -12 -12 -13 -13 -13 -13 -13 -13 -13 -13 -12 -12 -12 -12 -12 -12 -12 -12 -12 -11 -11 -12 -11 -12 -12 -12 -13 -13 -13 -13
-12 -12 -12 -12 -12 -12 -12 -12 -12 -12 -12 -12 -12 -12 -12 -12 -13 -12 -12 -12 -13 -13 -12 -13 -12 -12 -12 -12 -12 -12 -12 -12 -12 -12 -12 -12 -13 -13 -13 -13 -13 -13 -13
-12 -12 -12 -11 -12 -12 -12 -12 -12 -12 -12 -12 -12 -12 -12 -12 -12 -12 -12 -12 -12 -12 -12 -12 -12 -12 -12 -12 -12 -12 -12 -12 -12 -12 -13 -13 -13 -13 -13 -13 -13 -13 -14
-12 -12 -12 -12 -12 -12 -13 -13 -12 -12 -12 -12 -12 -12 -12 -12 -12 -12 -12 -12 -12 -12 -12 -12 -12 -12 -12 -12 -12 -13 -13 -13 -13 -13 -13 -13 -13 -13 -13 -13 -14 -14 -14
-12 -12 -12 -12 -12 -12 -12 -12 -12 -12 -12 -12 -12 -12 -12 -12 -12 -12 -12 -12 -12 -12 -12 -12 -12 -13 -13 -13 -14 -13 -13 -13 -13 -13 -13 -13 -13 -13 -13 -13 -13 -13 -13
-12 -12 -12 -12 -12 -12 -12 -12 -12 -12 -12 -12 -12 -12 -12 -12 -13 -13 -12 -12 -13 -13 -13 -13 -13 -13 -13 -13 -13 -13 -13 -13 -13 -13 -13 -13 -13 -13 -13 -14 -14 -14 -14
-12 -12 -12 -12 -12 -12 -12 -12 -12 -12 -12 -12 -12 -12 -12 -12 -12 -13 -13 -13 -12 -12 -12 -13 -13 -13 -13 -13 -13 -13 -13 -13 -13 -13 -13 -13 -13 -13 -14 -14 -13 -13 -13
-12 -12 -12 -12 -12 -12 -12 -12 -12 -12 -12 -12 -12 -12 -12 -12 -12 -12 -12 -12 -13 -13 -13 -13 -12 -12 -12 -13 -13 -13 -13 -13 -13 -13 -13 -13 -13 -13 -13 -13 -13 -13 -13
-12 -12 -12 -12 -12 -12 -13 -12 -12 -12 -12 -13 -12 -12 -12 -12 -12 -12 -12 -12 -12 -12 -12 -13 -13 -13 -13 -13 -13 -13 -13 -13 -13 -13 -13 -13 -13 -13 -13 -13 -13 -13 -14
-12 -12 -12 -12 -12 -12 -12 -12 -12 -12 -12 -12 -12 -12 -12 -12 -12 -12 -12 -12 -12 -12 -12 -13 -13 -13 -13 -13 -13 -13 -13 -13 -13 -13 -13 -13 -13 -13 -13 -13 -13 -14 -14
-12 -12 -12 -12 -12 -12 -12 -12 -12 -13 -13 -13 -13 -13 -12 -12 -12 -12 -13 -13 -13 -13 -13 -13 -13 -13 -13 -13 -13 -13 -13 -13 -13 -13 -13 -13 -13 -13 -13 -14 -14 -14 -15
-12 -12 -12 -12 -12 -12 -12 -13 -13 -12 -12 -13 -13 -13 -13 -13 -13 -13 -13 -13 -13 -13 -13 -13 -13 -13 -13 -14 -14 -13 -13 -13 -13 -13 -14 -14 -14 -14 -14 -14 -14 -15 -15
-12 -12 -12 -12 -12 -12 -12 -13 -13 -13 -13 -13 -13 -13 -13 -13 -13 -13 -13 -13 -13 -13 -13 -13 -13 -13 -14 -14 -14 -14 -14 -14 -14 -14 -14 -14 -14 -14 -14 -14 -15 -15 -15
-12 -12 -12 -12 -12 -13 -13 -13 -13 -13 -13 -13 -13 -13 -13 -13 -13 -13 -13 -13 -13 -13 -14 -14 -14 -14 -14 -14 -14 -14 -14 -14 -14 -14 -14 -14 -14 -14 -14 -15 -15 -15 -15
-12 -12 -12 -12 -12 -12 -13 -13 -13 -13 -13 -13 -13 -13 -13 -13 -13 -13 -14 -14 -14 -14 -14 -14 -14 -14 -14 -14 -14 -14 -14 -15 -14 -14 -14 -14 -14 -15 -15 -15 -16 -15 -15
-12 -12 -12 -12 -12 -12 -13 -13 -13 -13 -13 -13 -13 -13 -13 -13 -13 -13 -14 -14 -14 -14 -14 -14 -14 -14 -14 -14 -14 -14 -14 -14 -14 -15 -15 -14 -15 -15 -15 -15 -15 -15 -16
-12 -12 -12 -12 -12 -13 -13 -13 -13 -13 -13 -13 -13 -13 -13 -13 -13 -13 -14 -14 -14 -14 -14 -14 -14 -14 -14 -14 -14 -14 -14 -14 -14 -14 -15 -15 -15 -15 -15 -15 -16 -16 -16
-12 -12 -13 -13 -13 -13 -13 -13 -13 -13 -13 -13 -13 -13 -13 -13 -14 -14 -14 -14 -15 -14 -15 -15 -14 -14 -14 -14 -14 -14 -14 -14 -14 -14 -14 -14 -15 -15 -15 -16 -16 -15 -16
-12 -13 -12 -13 -13 -13 -13 -13 -13 -13 -13 -13 -13 -14 -14 -14 -14 -14 -14 -15 -15 -15 -15 -15 -15 -14 -14 -14 -14 -14 -14 -14 -14 -14 -14 -14 -15 -14 -14 -15 -15 -15 -16
-13 -13 -12 -13 -13 -13 -13 -13 -13 -13 -13 -13 -13 -14 -14 -14 -14 -14 -14 -14 -14 -15 -14 -14 -14 -14 -14 -14 -14 -14 -14 -14 -14 -15 -15 -14 -14 -14 -14 -15 -15 -16 -16
-13 -13 -13 -13 -13 -13 -13 -13 -13 -13 -13 -13 -14 -14 -14 -14 -13 -13 -14 -15 -14 -14 -14 -14 -15 -15 -15 -14 -14 -15 -14 -14 -14 -14 -14 -15 -15 -15 -14 -16 -16 -15 -16
-13 -13 -13 -13 -13 -13 -13 -13 -13 -13 -13 -13 -13 -13 -14 -14 -14 -13 -14 -14 -14 -14 -14 -14 -15 -15 -15 -15 -15 -14 -14 -15 -15 -15 -14 -15 -14 -15 -15 -15 -15 -16 -16
Height
5720 5717 5714 5709 5706 5702 5699 5694 5691 5689 5689 5690 5691 5691 5693 5694 5697 5700 5703 5707 5711 5715 5719 5725 5728 5732 5735 5737 5742 5745 5748 5752 5757 5761 5766 5770 5774 5781 5787 5792 5795 5798 5800
5721 5718 5715 5711 5708 5704 5701 5699 5696 5695 5694 5694 5694 5695 5697 5699 5701 5703 5705 5708 5712 5716 5720 5724 5730 5734 5737 5740 5742 5746 5750 5753 5756 5759 5764 5770 5775 5781 5786 5790 5793 5797 5801
5722 5720 5717 5714 5710 5706 5704 5703 5702 5700 5699 5698 5698 5698 5699 5701 5703 5706 5709 5712 5715 5719 5722 5726 5730 5734 5738 5741 5744 5748 5750 5754 5757 5761 5766 5771 5777 5782 5786 5790 5793 5797 5801
5723 5721 5719 5716 5711 5707 5707 5706 5706 5705 5704 5703 5702 5702 5703 5704 5705 5707 5710 5714 5717 5722 5726 5730 5733 5736 5740 5743 5747 5750 5752 5755 5758 5762 5767 5773 5778 5783 5786 5789 5793 5797 5800
5724 5723 5721 5718 5714 5710 5711 5711 5710 5709 5708 5708 5706 5706 5705 5707 5708 5709 5712 5715 5719 5723 5727 5731 5734 5738 5742 5745 5747 5749 5752 5756 5760 5764 5769 5774 5779 5783 5785 5789 5794 5799 5800
5727 5725 5723 5721 5719 5716 5716 5715 5715 5713 5713 5713 5711 5710 5709 5708 5709 5711 5714 5717 5721 5725 5728 5732 5736 5738 5742 5745 5746 5748 5752 5758 5763 5768 5772 5777 5781 5784 5787 5791 5793 5795 5797
5729 5728 5726 5724 5723 5722 5720 5719 5719 5718 5718 5718 5716 5715 5714 5711 5711 5713 5715 5717 5721 5726 5730 5734 5737 5740 5743 5746 5749 5752 5757 5762 5767 5770 5774 5778 5782 5786 5788 5791 5794 5793 5793
5731 5730 5729 5727 5728 5726 5726 5725 5724 5723 5722 5721 5721 5721 5720 5718 5718 5719 5719 5719 5723 5727 5731 5735 5739 5743 5746 5750 5753 5757 5761 5765 5770 5774 5778 5782 5785 5787 5789 5790 5791 5789 5790
5733 5733 5732 5731 5732 5731 5730 5730 5730 5729 5728 5727 5727 5727 5727 5726 5726 5727 5727 5728 5731 5734 5738 5741 5744 5748 5751 5754 5757 5761 5765 5769 5773 5777 5780 5782 5784 5785 5785 5786 5787 5788 5786
5736 5736 5736 5735 5735 5735 5736 5735 5735 5735 5734 5734 5733 5733 5734 5734 5734 5735 5735 5736 5738 5742 5745 5748 5750 5752 5755 5759 5763 5766 5769 5773 5775 5778 5779 5780 5782 5783 5784 5784 5783 5782 5781
5737 5738 5739 5739 5739 5739 5739 5739 5740 5739 5739 5739 5740 5740 5740 5740 5741 5742 5743 5745 5746 5749 5751 5754 5757 5759 5762 5764 5767 5770 5772 5774 5775 5778 5779 5780 5781 5781 5780 5779 5779 5778 5777
5739 5739 5740 5741 5742 5743 5743 5743 5743 5743 5743 5744 5744 5745 5745 5746 5748 5748 5750 5751 5752 5754 5756 5758 5760 5762 5765 5767 5769 5771 5773 5774 5775 5775 5776 5777 5778 5779 5779 5778 5777 5775 5772
5739 5740 5741 5742 5743 5745 5746 5746 5747 5747 5747 5748 5749 5749 5750 5751 5752 5753 5754 5755 5757 5758 5759 5761 5763 5765 5768 5769 5770 5771 5772 5772 5774 5775 5776 5777 5777 5776 5775 5773 5770 5768 5764
5739 5740 5741 5743 5744 5746 5748 5749 5750 5751 5751 5752 5753 5754 5754 5755 5756 5757 5758 5759 5760 5761 5763 5764 5765 5766 5767 5768 5769 5770 5771 5772 5773 5773 5773 5772 5770 5769 5768 5766 5763 5761 5758
5738 5740 5742 5744 5745 5747 5748 5750 5751 5752 5753 5754 5755 5756 5757 5758 5759 5760 5760 5761 5761 5762 5763 5764 5764 5765 5766 5767 5768 5768 5768 5768 5768 5767 5766 5765 5764 5763 5762 5760 5757 5754 5749
5737 5739 5741 5743 5745 5747 5748 5750 5751 5752 5754 5755 5755 5757 5757 5758 5759 5760 5761 5762 5762 5763 5763 5763 5763 5764 5764 5763 5763 5764 5764 5764 5763 5762 5761 5759 5757 5756 5754 5751 5747 5743 5739
5735 5737 5739 5741 5743 5746 5747 5749 5750 5751 5752 5754 5755 5756 5756 5757 5758 5759 5760 5761 5761 5762 5762 5762 5761 5761 5761 5760 5760 5759 5759 5758 5756 5755 5753 5751 5749 5747 5745 5742 5738 5734 5729
5732 5735 5737 5738 5741 5743 5745 5747 5748 5749 5750 5751 5752 5753 5754 5754 5754 5756 5757 5758 5758 5758 5758 5758 5758 5757 5756 5754 5753 5753 5752 5750 5748 5747 5745 5743 5741 5738 5736 5733 5729 5725 5720
5728 5730 5733 5735 5737 5739 5741 5743 5745 5746 5747 5748 5749 5749 5750 5750 5751 5752 5753 5753 5753 5754 5754 5754 5754 5752 5751 5749 5748 5746 5744 5742 5741 5739 5736 5734 5731 5727 5725 5723 5719 5715 5709
5722 5725 5728 5730 5732 5734 5736 5738 5740 5741 5742 5744 5745 5745 5745 5746 5747 5747 5748 5748 5748 5748 5748 5748 5748 5747 5745 5743 5741 5738 5735 5733 5731 5729 5727 5725 5722 5719 5715 5712 5708 5704 5698
5717 5719 5721 5724 5726 5728 5730 5733 5734 5736 5738 5739 5739 5739 5740 5741 5741 5742 5743 5743 5743 5742 5741 5741 5740 5739 5737 5736 5733 5730 5726 5723 5720 5720 5718 5716 5713 5709 5706 5702 5699 5694 5689
5711 5713 5715 5717 5720 5722 5725 5726 5728 5729 5731 5732 5733 5734 5734 5736 5736 5736 5736 5737 5736 5735 5734 5733 5732 5730 5728 5726 5724 5721 5718 5715 5711 5709 5708 5706 5702 5699 5694 5691 5686 5683 5679
5703 5706 5708 5711 5713 5714 5716 5718 5720 5721 5723 5724 5725 5725 5727 5728 5729 5728 5728 5728 5727 5727 5726 5725 5723 5721 5718 5715 5714 5712 5709 5706 5703 5700 5698 5694 5691 5686 5681 5677 5675 5673 5668
5695 5698 5701 5704 5705 5706 5708 5710 5712 5713 5715 5716 5717 5717 5718 5718 5720 5720 5719 5719 5718 5717 5716 5715 5713 5711 5708 5706 5704 5702 5699 5697 5694 5692 5689 5684 5679 5673 5670 5666 5665 5661 5657
5688 5690 5693 5697 5699 5700 5700 5702 5703 5704 5706 5707 5708 5709 5709 5708 5709 5709 5709 5708 5707 5706 5704 5703 5702 5700 5698 5696 5694 5692 5689 5687 5683 5678 5676 5672 5666 5661 5656 5654 5652 5651 5647
5682 5684 5685 5687 5689 5692 5692 5693 5694 5695 5696 5698 5699 5700 5701 5700 5698 5697 5698 5697 5696 5694 5693 5692 5690 5689 5687 5685 5683 5681 5678 5675 5671 5666 5662 5659 5654 5650 5646 5642 5642 5639 5635
Wind_Speed
9 8 9 12 12 9 14 15 13 11 13 10 12 15 17 18 21 19 21 22 20 24 22 20 20 17 20 17 15 16 21 22 23 16 26 26 24 30 29 20 19 19 21
6 9 9 11 14 11 11 14 14 13 12 12 11 12 13 15 17 17 18 18 26 27 23 21 19 18 15 13 15 16 15 15 18 19 32 30 29 32 27 19 20 21 21
4 7 8 11 12 11 8 10 14 12 12 12 12 12 13 14 18 16 16 16 20 25 23 20 17 16 15 8 15 12 12 16 19 23 30 30 33 25 24 21 23 18 16
8 5 9 11 12 10 8 9 15 14 14 14 11 9 11 15 14 15 17 19 21 20 18 14 14 15 16 14 13 15 13 17 22 21 25 29 27 29 29 26 18 19 18
7 4 8 10 14 14 13 13 14 13 13 18 16 13 11 13 16 18 18 17 16 17 17 17 14 14 15 13 16 12 11 18 22 24 27 27 29 31 23 19 21 16 10
6 6 7 10 11 15 14 15 11 10 15 10 18 11 12 10 6 11 16 17 21 18 20 17 14 10 11 9 6 15 25 28 25 25 24 24 20 21 21 17 12 7 8
4 5 9 11 10 10 10 10 13 13 12 12 15 17 15 15 17 14 15 16 17 20 19 18 13 14 12 18 21 30 34 30 28 29 23 21 21 18 14 11 10 9 8
5 6 11 14 12 14 17 18 17 15 16 15 16 17 19 24 24 24 22 21 23 20 22 24 26 27 31 32 28 28 26 22 19 19 19 17 15 12 10 10 8 6 10
6 7 10 14 13 13 15 17 17 17 18 19 20 19 17 20 19 19 20 24 29 29 28 30 27 26 25 23 22 21 23 22 18 14 12 10 9 8 7 6 8 11 15
7 8 9 14 15 15 16 14 14 15 16 16 18 19 18 21 23 23 23 25 27 25 23 19 22 23 23 22 20 20 17 14 11 9 8 8 8 6 8 10 12 16 20
7 9 10 11 11 11 12 13 14 14 13 14 15 17 18 18 19 19 21 20 23 21 20 19 18 16 15 15 13 10 8 8 9 8 7 6 7 9 11 15 19 22 24
6 9 10 10 9 8 8 10 10 13 14 13 12 13 14 14 15 15 14 15 16 15 15 14 13 11 9 7 6 4 3 4 5 5 6 8 10 13 17 21 22 23 27
6 7 9 9 10 10 10 12 14 14 16 16 16 17 15 14 12 11 11 11 10 9 9 8 7 6 4 3 2 2 3 5 7 9 11 13 15 17 20 21 23 27 30
10 8 7 10 12 11 11 13 14 14 13 14 14 14 14 14 12 11 10 10 9 8 7 6 4 3 2 2 4 6 9 11 12 14 15 17 19 19 21 24 27 30 33
11 11 10 10 10 10 11 13 13 12 12 11 9 8 8 7 7 5 4 3 2 1 1 2 4 5 6 8 11 13 15 16 17 19 20 22 23 22 25 27 31 32 35
12 13 13 12 12 11 11 12 11 10 10 8 5 2 1 3 3 2 3 4 5 6 7 8 9 10 10 13 16 17 17 18 19 21 22 22 24 26 29 31 31 34 38
18 15 16 16 15 15 14 13 12 11 11 10 8 7 7 7 5 4 5 6 8 9 11 12 13 13 14 18 20 20 20 21 22 23 24 26 28 30 32 31 33 34 39
21 20 19 19 19 19 19 18 17 16 16 15 14 14 12 11 10 10 9 10 12 14 11 11 12 14 16 21 24 24 25 26 26 27 29 31 32 34 32 32 34 38 43
20 21 23 22 22 22 21 21 21 21 20 19 18 17 16 16 16 14 14 14 15 13 11 12 12 14 17 22 28 29 32 32 32 31 32 34 35 35 34 34 37 42 45
21 22 23 23 26 26 23 22 22 22 21 21 20 21 21 20 18 18 16 15 16 17 17 19 20 20 22 26 32 34 40 41 37 35 38 37 37 38 36 35 40 44 44
22 21 22 22 21 23 25 24 23 22 22 23 22 23 24 21 19 17 18 18 21 23 24 26 25 26 25 29 29 26 32 38 35 40 37 38 39 39 39 38 43 41 47
21 21 23 24 25 25 24 25 26 28 29 28 28 26 26 24 23 23 23 22 24 26 27 28 31 31 33 34 35 32 33 31 33 33 37 42 43 46 42 41 43 46 46
26 25 24 23 24 26 26 27 27 23 23 25 27 30 31 31 30 30 31 30 31 31 32 35 37 36 37 45 43 33 29 31 35 32 36 42 47 51 57 55 47 51 47
29 28 27 26 25 24 25 26 27 27 27 28 28 29 31 32 33 35 37 36 36 37 39 39 40 40 39 38 35 33 34 38 39 40 41 44 49 51 57 49 49 44 51
30 29 29 30 27 26 25 24 25 25 26 27 28 29 30 32 32 33 34 36 38 42 43 42 36 37 36 41 39 36 41 47 50 47 39 43 45 50 45 50 55 53 50
36 34 33 34 34 34 33 31 32 32 31 31 31 33 34 34 35 36 34 36 37 36 36 35 34 37 39 35 36 40 41 40 42 48 51 51 51 41 41 40 49 45 48
Wind_Direction
340 338 358 10 12 24 23 34 52 86 115 117 114 123 130 146 144 152 155 169 169 165 166 164 168 163 149 152 160 165 159 170 176 174 189 191 186 193 176 179 183 188 194
11 21 18 25 21 34 42 50 57 95 107 111 126 130 139 151 151 147 150 157 169 174 175 176 173 172 179 193 188 170 171 190 190 198 171 162 169 172 178 182 193 195 203
27 21 18 18 21 34 58 68 75 93 114 108 121 119 116 139 161 148 153 153 165 176 181 188 181 185 196 172 195 202 181 184 181 164 171 175 175 184 192 195 193 192 197
20 7 17 25 21 54 82 81 84 89 107 113 125 132 133 132 140 147 158 164 164 169 177 176 184 191 192 195 197 200 170 166 170 176 183 180 188 195 194 195 176 192 200
31 31 20 37 36 71 105 92 105 85 95 103 97 96 88 145 147 148 152 153 161 164 159 162 169 174 175 197 186 205 199 176 170 170 170 174 180 188 190 169 190 195 201
49 47 28 61 64 88 90 86 84 101 106 84 82 98 80 90 155 157 171 172 161 160 173 166 155 176 166 196 200 167 159 154 152 156 169 170 166 167 179 184 185 197 233
65 53 70 81 82 83 77 83 97 89 116 89 81 99 68 73 106 121 173 182 176 178 159 158 153 169 195 160 157 147 154 162 172 172 159 160 178 185 179 188 207 228 259
89 97 92 89 84 89 95 93 94 95 92 89 79 86 79 92 106 100 93 117 148 152 163 152 145 145 144 146 152 146 144 141 147 162 169 175 179 185 196 217 236 291 309
114 122 109 101 96 94 90 91 91 92 89 90 88 84 83 83 108 110 110 110 121 128 131 138 138 132 131 128 128 133 147 158 155 159 167 180 199 221 248 287 306 303 308
133 134 122 109 102 94 91 93 92 92 92 91 92 92 89 90 88 92 109 111 111 109 117 122 128 133 139 140 143 145 146 143 145 171 196 212 236 267 293 295 301 304 304
152 151 140 123 111 106 103 100 100 99 96 96 96 95 96 92 90 93 101 109 115 119 122 122 124 126 127 127 131 133 139 159 180 210 233 255 284 302 305 302 298 298 298
163 162 160 146 135 120 117 119 110 103 106 108 102 97 95 96 98 100 98 102 105 108 116 122 124 126 129 124 124 131 172 212 237 264 289 296 290 283 281 285 291 295 300
198 169 170 164 152 139 132 124 119 111 104 98 96 96 94 93 94 98 102 102 102 106 110 116 122 132 141 139 150 198 239 262 271 272 273 271 273 279 285 290 297 302 302
218 194 174 165 159 153 149 142 133 126 118 112 102 93 86 85 84 84 87 92 99 106 114 122 131 145 173 241 268 270 273 276 280 281 282 288 290 289 292 297 299 297 298
225 215 193 183 175 171 166 162 157 149 141 129 114 96 79 67 63 65 63 53 50 41 295 278 273 274 276 276 276 277 282 288 291 295 296 294 290 287 288 291 295 301 303
228 222 216 203 196 194 193 192 190 185 182 175 164 135 23 352 358 358 318 299 294 289 286 285 283 282 283 283 281 285 291 293 292 290 289 287 286 288 292 299 304 303 306
229 225 228 223 214 211 213 215 216 217 221 230 243 256 277 285 281 284 309 303 292 288 289 292 290 287 283 279 283 286 287 286 287 288 287 287 289 293 296 301 301 302 305
233 232 231 232 232 228 224 225 227 231 239 247 256 262 264 260 261 267 284 288 281 282 290 290 290 290 284 279 280 282 285 287 286 287 287 289 291 294 298 295 296 309 314
237 237 237 241 240 239 241 242 241 241 243 248 254 257 256 262 267 269 274 272 275 272 273 282 287 292 288 285 291 295 294 280 281 282 284 287 291 293 294 296 303 306 310
236 238 240 242 243 239 240 243 244 243 242 246 253 258 262 265 263 265 271 267 265 270 275 280 286 286 295 296 300 299 303 314 299 293 283 287 289 291 294 297 300 303 308
229 233 240 248 244 241 241 238 244 248 253 253 257 266 264 262 267 272 267 267 270 273 276 280 283 284 293 288 296 300 299 300 302 302 302 289 291 292 294 292 293 297 290
239 240 240 239 244 251 255 252 252 255 257 258 260 262 263 267 271 274 272 268 268 272 276 280 280 284 285 287 290 296 299 292 294 293 294 293 291 287 286 284 286 291 292
236 238 240 240 242 246 250 251 259 260 255 257 259 260 262 267 267 269 271 270 271 274 275 280 285 284 292 288 279 288 290 289 300 308 300 294 296 292 292 286 282 285 290
238 241 244 244 243 244 247 253 258 261 261 261 261 263 268 271 272 272 275 277 278 279 278 280 283 279 283 282 280 280 285 287 286 288 285 289 299 296 297 282 283 283 296
229 238 245 252 250 244 244 249 255 260 261 261 261 263 266 271 275 274 274 271 271 276 279 277 276 280 274 274 283 280 287 279 283 290 294 297 295 295 288 282 275 284 292
234 235 237 244 249 250 251 253 258 261 263 263 263 265 265 266 268 271 271 271 274 276 283 286 289 290 289 279 277 281 290 292 287 285 286 291 290 289 281 281 276 278 284